N741WB KILM-KMYR

Flight info

Callsign N741WB
Flight time 0h 47m
Altitude 4000
Route BEVET/N0112F030
Aircraft C172/L-SFG/C

Departure

Time 2026-05-06 23:55
Airport Wilmington International Airport (KILM)

Arrival

Time 2026-05-07 00:43
Airport Myrtle Beach International Airport (KMYR)
Time Latitude Longitude Altitude Speed Heading
2026-05-06 23:17 34.27476 -77.90989 28 ft 0 kts 349°
2026-05-06 23:44 34.27477 -77.90989 28 ft 1 kts 345°
2026-05-06 23:44 34.27491 -77.90990 28 ft 2 kts 17°
2026-05-06 23:44 34.27509 -77.90978 28 ft 0 kts 36°
2026-05-06 23:44 34.27512 -77.90976 28 ft 0 kts 36°
2026-05-06 23:47 34.27514 -77.90974 28 ft 1 kts 37°
2026-05-06 23:47 34.27529 -77.90959 28 ft 3 kts 33°
2026-05-06 23:47 34.27560 -77.90947 28 ft 5 kts
2026-05-06 23:47 34.27598 -77.90952 28 ft 5 kts 349°
2026-05-06 23:48 34.27644 -77.90961 28 ft 6 kts 353°
2026-05-06 23:48 34.27687 -77.90969 28 ft 6 kts 348°
2026-05-06 23:48 34.27734 -77.90979 28 ft 7 kts 349°
2026-05-06 23:48 34.27780 -77.90990 28 ft 6 kts 347°
2026-05-06 23:49 34.27826 -77.91001 28 ft 6 kts 350°
2026-05-06 23:49 34.27873 -77.91011 28 ft 7 kts 347°
2026-05-06 23:49 34.27938 -77.91026 28 ft 8 kts 351°
2026-05-06 23:49 34.27987 -77.91034 28 ft 6 kts 356°
2026-05-06 23:50 34.28030 -77.91021 28 ft 5 kts 28°
2026-05-06 23:50 34.28052 -77.91000 28 ft 0 kts 46°
2026-05-06 23:52 34.28055 -77.90995 28 ft 0 kts 52°
2026-05-06 23:52 34.28063 -77.90982 28 ft 3 kts 58°
2026-05-06 23:53 34.28084 -77.90943 28 ft 7 kts 59°
2026-05-06 23:53 34.28084 -77.90896 28 ft 3 kts 144°
2026-05-06 23:53 34.28073 -77.90890 28 ft 0 kts 171°
2026-05-06 23:53 34.28041 -77.90874 28 ft 17 kts 157°
2026-05-06 23:54 34.27788 -77.90762 43 ft 56 kts 166°
2026-05-06 23:54 34.27386 -77.90538 106 ft 68 kts 168°
2026-05-06 23:54 34.26900 -77.90324 194 ft 79 kts 165°
2026-05-06 23:54 34.26386 -77.90053 315 ft 79 kts 166°
2026-05-06 23:55 34.25908 -77.89763 450 ft 75 kts 162°
2026-05-06 23:55 34.25498 -77.89478 632 ft 59 kts 166°
2026-05-06 23:55 34.25121 -77.89364 743 ft 52 kts 186°
2026-05-06 23:55 34.24757 -77.89447 816 ft 56 kts 198°
2026-05-06 23:56 34.24410 -77.89601 969 ft 49 kts 204°
2026-05-06 23:56 34.24087 -77.89726 1120 ft 46 kts 202°
2026-05-06 23:56 34.23743 -77.89753 1236 ft 52 kts 185°
2026-05-06 23:56 34.23389 -77.89666 1388 ft 47 kts 182°
2026-05-06 23:57 34.23060 -77.89542 1503 ft 52 kts 172°
2026-05-06 23:57 34.22732 -77.89339 1666 ft 49 kts 169°
2026-05-06 23:57 34.22421 -77.89135 1765 ft 53 kts 170°
2026-05-06 23:57 34.22091 -77.88879 1901 ft 61 kts 162°
2026-05-06 23:58 34.21700 -77.88635 1970 ft 66 kts 172°
2026-05-06 23:58 34.21281 -77.88417 2151 ft 61 kts 173°
2026-05-06 23:58 34.20941 -77.88200 2270 ft 66 kts 164°
2026-05-06 23:58 34.20557 -77.87856 2383 ft 72 kts 162°
2026-05-06 23:59 34.20095 -77.87594 2477 ft 75 kts 171°
2026-05-06 23:59 34.19592 -77.87372 2582 ft 78 kts 174°
2026-05-06 23:59 34.19063 -77.87154 2679 ft 82 kts 174°
2026-05-06 23:59 34.18513 -77.86928 2777 ft 84 kts 173°
2026-05-07 00:00 34.17945 -77.86700 2880 ft 86 kts 172°
2026-05-07 00:00 34.17367 -77.86475 2981 ft 88 kts 173°
2026-05-07 00:00 34.16780 -77.86247 3076 ft 89 kts 172°
2026-05-07 00:00 34.16184 -77.86020 3172 ft 90 kts 174°
2026-05-07 00:01 34.15585 -77.85858 3267 ft 84 kts 195°
2026-05-07 00:01 34.15140 -77.86222 3362 ft 79 kts 240°
2026-05-07 00:01 34.15017 -77.86883 3459 ft 82 kts 257°
2026-05-07 00:01 34.14985 -77.87576 3549 ft 83 kts 260°
2026-05-07 00:02 34.14962 -77.88271 3643 ft 83 kts 261°
2026-05-07 00:02 34.14933 -77.88963 3742 ft 82 kts 260°
2026-05-07 00:02 34.14898 -77.89653 3838 ft 82 kts 260°
2026-05-07 00:02 34.14858 -77.90344 3939 ft 82 kts 261°
2026-05-07 00:03 34.14818 -77.91030 4035 ft 81 kts 261°
2026-05-07 00:03 34.14778 -77.91709 4137 ft 80 kts 260°
2026-05-07 00:03 34.14740 -77.92383 4234 ft 80 kts 261°
2026-05-07 00:03 34.14700 -77.93053 4331 ft 79 kts 261°
2026-05-07 00:04 34.14653 -77.93716 4425 ft 79 kts 261°
2026-05-07 00:04 34.14609 -77.94377 4518 ft 78 kts 261°
2026-05-07 00:04 34.14559 -77.95031 4608 ft 78 kts 261°
2026-05-07 00:04 34.14504 -77.95680 4706 ft 77 kts 261°
2026-05-07 00:05 34.14445 -77.96326 4800 ft 77 kts 260°
2026-05-07 00:05 34.14382 -77.96968 4896 ft 76 kts 261°
2026-05-07 00:05 34.14318 -77.97604 4993 ft 76 kts 260°
2026-05-07 00:05 34.14253 -77.98235 5085 ft 75 kts 261°
2026-05-07 00:06 34.14180 -77.98858 5182 ft 75 kts 260°
2026-05-07 00:06 34.14106 -77.99475 5272 ft 74 kts 260°
2026-05-07 00:06 34.14029 -78.00087 5365 ft 73 kts 261°
2026-05-07 00:06 34.13946 -78.00689 5467 ft 72 kts 261°
2026-05-07 00:07 34.13865 -78.01287 5562 ft 72 kts 260°
2026-05-07 00:07 34.13780 -78.01878 5653 ft 71 kts 260°
2026-05-07 00:07 34.13689 -78.02462 5751 ft 70 kts 260°
2026-05-07 00:07 34.13597 -78.03039 5851 ft 69 kts 260°
2026-05-07 00:08 34.13498 -78.03607 5944 ft 69 kts 260°
2026-05-07 00:08 34.13391 -78.04189 5991 ft 74 kts 260°
2026-05-07 00:08 34.13273 -78.04831 5997 ft 82 kts 261°
2026-05-07 00:08 34.13144 -78.05533 5992 ft 88 kts 261°
2026-05-07 00:09 34.13008 -78.06271 5993 ft 91 kts 261°
2026-05-07 00:09 34.12869 -78.07029 5997 ft 94 kts 261°
2026-05-07 00:09 34.12727 -78.07808 5998 ft 95 kts 261°
2026-05-07 00:09 34.12588 -78.08595 5996 ft 96 kts 261°
2026-05-07 00:10 34.12451 -78.09390 5997 ft 96 kts 261°
2026-05-07 00:10 34.12319 -78.10187 5998 ft 97 kts 261°
2026-05-07 00:10 34.12188 -78.10985 5999 ft 97 kts 261°
2026-05-07 00:10 34.12060 -78.11785 5998 ft 97 kts 261°
2026-05-07 00:11 34.11929 -78.12585 5996 ft 97 kts 261°
2026-05-07 00:11 34.11799 -78.13384 5997 ft 97 kts 261°
2026-05-07 00:11 34.11671 -78.14184 5995 ft 97 kts 261°
2026-05-07 00:11 34.11543 -78.14980 5992 ft 97 kts 261°
2026-05-07 00:12 34.11413 -78.15775 5993 ft 96 kts 261°
2026-05-07 00:12 34.11282 -78.16565 5995 ft 96 kts 261°
2026-05-07 00:12 34.11147 -78.17355 5998 ft 96 kts 261°
2026-05-07 00:12 34.11007 -78.18144 5997 ft 96 kts 261°
2026-05-07 00:13 34.10869 -78.18935 5997 ft 96 kts 261°
2026-05-07 00:13 34.10730 -78.19728 5998 ft 97 kts 261°
2026-05-07 00:13 34.10589 -78.20526 5994 ft 97 kts 261°
2026-05-07 00:13 34.10453 -78.21319 5994 ft 97 kts 261°
2026-05-07 00:14 34.10320 -78.22119 5995 ft 97 kts 261°
2026-05-07 00:14 34.10189 -78.22917 5993 ft 97 kts 261°
2026-05-07 00:14 34.10058 -78.23717 5997 ft 97 kts 261°
2026-05-07 00:14 34.09929 -78.24516 5995 ft 97 kts 261°
2026-05-07 00:15 34.09800 -78.25313 5993 ft 97 kts 261°
2026-05-07 00:15 34.09675 -78.26110 5989 ft 97 kts 261°
2026-05-07 00:15 34.09505 -78.26895 5984 ft 96 kts 255°
2026-05-07 00:15 34.09270 -78.27657 5979 ft 96 kts 252°
2026-05-07 00:16 34.08994 -78.28397 5978 ft 96 kts 250°
2026-05-07 00:16 34.08694 -78.29125 5975 ft 97 kts 248°
2026-05-07 00:16 34.08404 -78.29796 6266 ft 68 kts 252°
2026-05-07 00:16 34.08178 -78.30213 6213 ft 84 kts 247°
2026-05-07 00:17 34.07865 -78.30933 6006 ft 103 kts 248°
2026-05-07 00:17 34.07528 -78.31673 5968 ft 95 kts 247°
2026-05-07 00:17 34.07217 -78.32340 5963 ft 87 kts 247°
2026-05-07 00:17 34.06925 -78.32959 5962 ft 83 kts 247°
2026-05-07 00:18 34.06642 -78.33559 5963 ft 81 kts 246°
2026-05-07 00:18 34.06362 -78.34147 5966 ft 80 kts 246°
2026-05-07 00:18 34.06110 -78.34676 5970 ft 84 kts 246°
2026-05-07 00:18 34.05810 -78.35308 5970 ft 89 kts 245°
2026-05-07 00:19 34.05496 -78.35969 5969 ft 92 kts 245°
2026-05-07 00:19 34.05176 -78.36641 5968 ft 93 kts 245°
2026-05-07 00:19 34.04853 -78.37322 5970 ft 93 kts 245°
2026-05-07 00:19 34.04526 -78.38008 5971 ft 94 kts 245°
2026-05-07 00:20 34.04198 -78.38696 5973 ft 95 kts 245°
2026-05-07 00:20 34.03869 -78.39387 5974 ft 95 kts 245°
2026-05-07 00:20 34.03538 -78.40082 5973 ft 95 kts 246°
2026-05-07 00:20 34.03206 -78.40778 5971 ft 95 kts 246°
2026-05-07 00:21 34.02877 -78.41470 5968 ft 95 kts 246°
2026-05-07 00:21 34.02547 -78.42162 5969 ft 94 kts 246°
2026-05-07 00:21 34.02219 -78.42850 5970 ft 94 kts 246°
2026-05-07 00:21 34.01893 -78.43536 5968 ft 94 kts 246°
2026-05-07 00:22 34.01566 -78.44224 5968 ft 94 kts 245°
2026-05-07 00:22 34.01238 -78.44912 5970 ft 94 kts 246°
2026-05-07 00:22 34.00906 -78.45608 5933 ft 98 kts 246°
2026-05-07 00:22 34.00557 -78.46346 5833 ft 103 kts 245°
2026-05-07 00:23 34.00197 -78.47109 5734 ft 106 kts 245°
2026-05-07 00:23 33.99827 -78.47886 5635 ft 107 kts 245°
2026-05-07 00:23 33.99452 -78.48671 5533 ft 108 kts 245°
2026-05-07 00:23 33.99094 -78.49418 5426 ft 99 kts 245°
2026-05-07 00:24 33.98753 -78.50128 5291 ft 97 kts 244°
2026-05-07 00:24 33.98414 -78.50836 5140 ft 97 kts 244°
2026-05-07 00:24 33.98079 -78.51537 4991 ft 97 kts 244°
2026-05-07 00:24 33.97742 -78.52240 4842 ft 96 kts 243°
2026-05-07 00:25 33.97406 -78.52940 4688 ft 96 kts 243°
2026-05-07 00:25 33.97074 -78.53635 4539 ft 95 kts 243°
2026-05-07 00:25 33.96742 -78.54327 4386 ft 95 kts 243°
2026-05-07 00:25 33.96413 -78.55018 4234 ft 96 kts 242°
2026-05-07 00:26 33.96068 -78.55733 4086 ft 100 kts 242°
2026-05-07 00:26 33.95719 -78.56462 3987 ft 98 kts 241°
2026-05-07 00:26 33.95384 -78.57155 3971 ft 92 kts 241°
2026-05-07 00:26 33.95068 -78.57808 3969 ft 88 kts 241°
2026-05-07 00:27 33.94764 -78.58440 3968 ft 86 kts 241°
2026-05-07 00:27 33.94460 -78.59067 3973 ft 89 kts 240°
2026-05-07 00:27 33.94139 -78.59732 3973 ft 93 kts 241°
2026-05-07 00:27 33.93810 -78.60419 3972 ft 95 kts 241°
2026-05-07 00:28 33.93474 -78.61119 3974 ft 96 kts 241°
2026-05-07 00:28 33.93137 -78.61823 3975 ft 97 kts 241°
2026-05-07 00:28 33.92797 -78.62531 3974 ft 97 kts 241°
2026-05-07 00:28 33.92457 -78.63241 3976 ft 98 kts 241°
2026-05-07 00:29 33.92115 -78.63952 3976 ft 98 kts 242°
2026-05-07 00:29 33.91774 -78.64664 3974 ft 98 kts 241°
2026-05-07 00:30 33.90737 -78.66821 3979 ft 99 kts 241°
2026-05-07 00:30 33.90390 -78.67546 3980 ft 100 kts 240°
2026-05-07 00:30 33.90041 -78.68271 3983 ft 99 kts 241°
2026-05-07 00:30 33.89692 -78.68996 3982 ft 99 kts 241°
2026-05-07 00:31 33.89344 -78.69723 3984 ft 100 kts 241°
2026-05-07 00:31 33.88993 -78.70451 3981 ft 101 kts 241°
2026-05-07 00:31 33.88638 -78.71191 3942 ft 104 kts 241°
2026-05-07 00:31 33.88268 -78.71964 3851 ft 108 kts 240°
2026-05-07 00:32 33.87888 -78.72759 3757 ft 110 kts 241°
2026-05-07 00:32 33.87503 -78.73561 3665 ft 111 kts 240°
2026-05-07 00:32 33.87115 -78.74369 3570 ft 111 kts 240°
2026-05-07 00:32 33.86726 -78.75177 3475 ft 112 kts 240°
2026-05-07 00:33 33.86335 -78.75989 3380 ft 112 kts 240°
2026-05-07 00:33 33.85941 -78.76805 3285 ft 112 kts 240°
2026-05-07 00:33 33.85565 -78.77591 3186 ft 103 kts 240°
2026-05-07 00:33 33.85216 -78.78319 3088 ft 98 kts 240°
2026-05-07 00:34 33.84880 -78.79020 2990 ft 95 kts 240°
2026-05-07 00:34 33.84551 -78.79705 2894 ft 94 kts 239°
2026-05-07 00:34 33.84226 -78.80380 2799 ft 92 kts 239°
2026-05-07 00:34 33.83904 -78.81050 2706 ft 91 kts 238°
2026-05-07 00:35 33.83584 -78.81714 2611 ft 91 kts 238°
2026-05-07 00:35 33.83264 -78.82378 2512 ft 92 kts 238°
2026-05-07 00:35 33.82943 -78.83043 2414 ft 91 kts 237°
2026-05-07 00:35 33.82622 -78.83705 2314 ft 91 kts 237°
2026-05-07 00:36 33.82303 -78.84371 2217 ft 91 kts 236°
2026-05-07 00:36 33.81980 -78.85035 2121 ft 92 kts 236°
2026-05-07 00:36 33.81658 -78.85702 2028 ft 92 kts 236°
2026-05-07 00:36 33.81335 -78.86372 1910 ft 93 kts 236°
2026-05-07 00:37 33.81004 -78.87060 1774 ft 96 kts 235°
2026-05-07 00:37 33.80669 -78.87754 1638 ft 96 kts 235°
2026-05-07 00:37 33.80331 -78.88454 1516 ft 97 kts 236°
2026-05-07 00:37 33.80005 -78.89132 1481 ft 89 kts 235°
2026-05-07 00:38 33.79701 -78.89756 1481 ft 83 kts 235°
2026-05-07 00:38 33.79390 -78.90318 1478 ft 78 kts 226°
2026-05-07 00:38 33.79034 -78.90756 1482 ft 74 kts 220°
2026-05-07 00:38 33.78640 -78.91163 1485 ft 78 kts 218°
2026-05-07 00:39 33.78209 -78.91608 1480 ft 84 kts 220°
2026-05-07 00:39 33.77755 -78.92078 1484 ft 88 kts 220°
2026-05-07 00:39 33.77279 -78.92567 1489 ft 90 kts 219°
2026-05-07 00:39 33.76797 -78.93070 1491 ft 93 kts 220°
2026-05-07 00:40 33.76303 -78.93580 1489 ft 94 kts 219°
2026-05-07 00:40 33.75789 -78.94071 1488 ft 94 kts 208°
2026-05-07 00:40 33.75148 -78.94124 1462 ft 90 kts 182°
2026-05-07 00:40 33.74522 -78.94126 1393 ft 89 kts 186°
2026-05-07 00:41 33.73899 -78.94121 1338 ft 86 kts 186°
2026-05-07 00:41 33.73290 -78.94079 1196 ft 93 kts 183°
2026-05-07 00:41 33.72616 -78.93965 1020 ft 101 kts 174°
2026-05-07 00:41 33.71953 -78.93758 916 ft 94 kts 173°
2026-05-07 00:42 33.71289 -78.93614 721 ft 102 kts 178°
2026-05-07 00:42 33.70567 -78.93477 478 ft 108 kts 174°
2026-05-07 00:42 33.69839 -78.93290 249 ft 104 kts 173°
2026-05-07 00:42 33.69149 -78.93115 78 ft 96 kts 174°
2026-05-07 00:43 33.68568 -78.92976 36 ft 72 kts 175°
2026-05-07 00:43 33.68155 -78.92883 20 ft 48 kts 165°
2026-05-07 00:43 33.67878 -78.92817 20 ft 33 kts 167°
2026-05-07 00:43 33.67689 -78.92771 20 ft 22 kts 168°
2026-05-07 00:44 33.67556 -78.92738 20 ft 16 kts 172°
2026-05-07 00:44 33.67467 -78.92720 20 ft 9 kts 182°
2026-05-07 00:44 33.67426 -78.92748 20 ft 5 kts 243°
2026-05-07 00:44 33.67417 -78.92802 20 ft 8 kts 256°
2026-05-07 00:45 33.67406 -78.92857 20 ft 6 kts 254°
2026-05-07 00:45 33.67394 -78.92923 21 ft 10 kts 257°
2026-05-07 00:45 33.67369 -78.93008 21 ft 9 kts 261°
2026-05-07 00:45 33.67378 -78.93088 21 ft 8 kts 286°
2026-05-07 00:46 33.67377 -78.93101 21 ft 2 kts 227°
2026-05-07 00:46 33.67381 -78.93155 21 ft 9 kts 299°
2026-05-07 00:46 33.67409 -78.93221 21 ft 9 kts 290°
2026-05-07 00:46 33.67433 -78.93299 21 ft 8 kts 277°
2026-05-07 00:47 33.67439 -78.93360 21 ft 5 kts 280°
2026-05-07 00:47 33.67441 -78.93397 21 ft 3 kts 272°
2026-05-07 00:47 33.67447 -78.93427 21 ft 2 kts 287°
2026-05-07 00:47 33.67451 -78.93434 21 ft 0 kts 316°